Content
SEND FEEDBACK

Daily
Averages
Monthly
Summary
United Kingdom

BLACKBURN, ENGLAND


Home > Europe > United Kingdom > England
Elevation: 250 feet     Latitude: 53 46N     Longitude: 002 34W

WEATHER
 
SELECT A DAY
Number of Records: 29,711;   Date Range: 7/1/96 - 9/30/14
 
SHARE

PRINT THIS DATA

[ ← Previous Day ]
WEATHER ALMANAC - JANUARY 20, 2014
[ Next Day → ]
[ °C ]   °F
Weather ElementAverageHighLow
Temperature40.7 °F44.6 °F (2:50 pm)35.6 °F (8:50 am)
Dewpoint39.2 °F42.8 °F (2:50 pm)35.6 °F (7:50 am)
Humidity94.3 %100 % (7:20 am)87 % (12:20 pm)
Barometer29.77 in29.83 in (4:50 pm)29.65 in (7:20 am)
Wind Speed3.8 mph6.9 mph (7:50 am)
Weather ElementAverage
Visibility6.2 mi
Wind DirectionESE (114.2 °)

Weather ElementTotal
Precipitation---
Heating Degree Days24.9 (Base 65)
Averaged from 24 records on January 20, 2014
WEATHER CONDITIONS BREAKOUT
WIND DIRECTION BREAKOUT
WEATHER BY HOUR - JANUARY 20, 2014
[ °C ]   °F
Local TimeTemperatureDewpointHumidityBarometerVisibilityWind DirectionWind SpeedGust SpeedPrecipitationEventsConditions
7:20 AM37.4 °F37.4 °F100 %29.65 in6.2 miSSE (160°)3.5 mphMostly Cloudy
7:50 AM37.4 °F35.6 °F93 %29.68 in6.2 miSE (130°)6.9 mphMostly Cloudy
8:20 AM37.4 °F35.6 °F93 %29.68 in6.2 miVariable3.5 mphScattered Clouds
8:50 AM35.6 °F35.6 °F100 %29.71 in6.2 miCalmPartly Cloudy
9:20 AM35.6 °F35.6 °F100 %29.71 in6.2 miSSE (150°)4.6 mphPartly Cloudy
9:50 AM37.4 °F37.4 °F100 %29.74 in6.2 miVariable3.5 mphPartly Cloudy
10:20 AM41.0 °F39.2 °F93 %29.74 in6.2 miVariable2.3 mphPartly Cloudy
10:50 AM41.0 °F39.2 °F93 %29.74 in6.2 miSE (140°)3.5 mphScattered Clouds
11:20 AM41.0 °F39.2 °F93 %29.77 in6.2 miSE (140°)4.6 mphScattered Clouds
11:50 AM42.8 °F41.0 °F93 %29.77 in6.2 miSSE (150°)5.8 mphScattered Clouds
12:20 PM42.8 °F39.2 °F87 %29.77 in6.2 miSSE (160°)6.9 mphScattered Clouds
12:50 PM42.8 °F39.2 °F87 %29.77 in6.2 miSW (220°)4.6 mphRainLight Rain Showers
1:20 PM42.8 °F41.0 °F93 %29.77 in6.2 miSouth (190°)3.5 mphMostly Cloudy
1:50 PM42.8 °F41.0 °F93 %29.77 in6.2 miSouth (190°)4.6 mphMostly Cloudy
2:20 PM42.8 °F41.0 °F93 %29.77 in6.2 miSouth (170°)3.5 mphMostly Cloudy
2:50 PM44.6 °F42.8 °F93 %29.77 in6.2 miSSE (150°)2.3 mphMostly Cloudy
3:20 PM44.6 °F42.8 °F93 %29.80 in6.2 miVariable3.5 mphMostly Cloudy
3:50 PM44.6 °F42.8 °F93 %29.80 in6.2 miSouth (190°)4.6 mphMostly Cloudy
4:20 PM42.8 °F41.0 °F93 %29.80 in6.2 miVariable3.5 mphMostly Cloudy
4:50 PM42.8 °F41.0 °F93 %29.83 in6.2 miSSE (150°)2.3 mphMostly Cloudy
5:20 PM41.0 °F39.2 °F93 %29.83 in6.2 miSSE (150°)3.5 mphMostly Cloudy
5:50 PM37.4 °F37.4 °F100 %29.83 in6.2 miSSE (150°)4.6 mphMostly Cloudy
6:20 PM39.2 °F37.4 °F93 %29.83 in6.2 miSSE (150°)3.5 mphMostly Cloudy
6:50 PM39.2 °F39.2 °F100 %29.83 in6.2 miVariable1.2 mphMostly Cloudy
Hourly data recorded from EGNO, located miles away from Blackburn, England







STORIES FROM OUR PARTNERS